NOAA 15 1 25338U 98030A 25040.13444757 .00000327 00000-0 15250-3 0 9995 2 25338 98.5487 68.0920 0010095 358.1452 1.9690 14.26878587391220 METEOSAT 8 (MSG 1) 1 27509U 02040B 25039.89011655 -.00000155 00000-0 00000-0 0 9995 2 27509 10.2807 44.9946 0013515 62.4660 310.4020 0.97904275 82113 KALPANA 1 (METSAT 1) 1 27525U 02043A 25039.67027554 -.00000122 00000-0 00000-0 0 9991 2 27525 12.2356 36.1915 0005646 141.4064 44.7748 0.98338640 81631 NOAA 18 1 28654U 05018A 25040.15023835 .00000348 00000-0 20805-3 0 9990 2 28654 98.8524 120.9505 0015152 110.9664 249.3132 14.13510386 16739 METEOSAT 9 (MSG 2) 1 28912U 05049B 25040.12191361 .00000114 00000-0 00000+0 0 9990 2 28912 8.2338 58.8112 0000584 222.1240 308.0928 1.00275852 70134 HIMAWARI 7 1 28937U 06004A 25040.09428562 -.00000022 00000-0 00000+0 0 9990 2 28937 4.5079 78.9883 0008768 172.1086 188.6405 0.99074112 69205 FORMOSAT 3A 1 29047U 06011A 25039.89194885 .00000712 00000-0 28433-3 0 9994 2 29047 71.9749 242.1633 0048328 9.7628 350.4436 14.30735259983823 FORMOSAT 3B 1 29048U 06011B 25040.02144774 .00000921 00000-0 36419-3 0 9999 2 29048 71.9666 150.8894 0043464 330.9697 28.9023 14.30709982986328 FORMOSAT 3C 1 29049U 06011C 25039.93889362 .00001070 00000-0 42178-3 0 9992 2 29049 72.0209 332.3508 0034683 340.9706 19.0133 14.30742272982102 FORMOSAT 3D 1 29050U 06011D 25040.17327089 .00002558 00000-0 48259-3 0 9993 2 29050 72.0156 298.8152 0042972 113.4136 247.1548 14.64750768 4280 FORMOSAT 3E 1 29051U 06011E 25039.94236141 .00000941 00000-0 36523-3 0 9990 2 29051 72.0017 230.9750 0068086 227.6307 131.9055 14.30838112984733 FORMOSAT 3F 1 29052U 06011F 25040.17834842 .00000906 00000-0 35705-3 0 9992 2 29052 72.0341 309.8206 0040921 297.3107 62.3867 14.30934478983128 GOES 13 1 29155U 06018A 25039.85666757 -.00000275 00000-0 00000-0 0 9991 2 29155 3.2456 82.4636 0065919 259.8837 254.9287 0.98833375 38379 METOP-A 1 29499U 06044A 25039.90857972 .00004557 00000-0 55210-3 0 9990 2 29499 98.3356 127.3528 0181508 198.9520 224.3298 14.73088042952759 FENGYUN 2D 1 29640U 06053A 25039.65044832 -.00000214 00000-0 00000-0 0 9994 2 29640 10.0210 44.6717 0008757 23.0329 115.5214 0.98194653 66154 FENGYUN 3A 1 32958U 08026A 25039.84426047 .00000328 00000-0 17646-3 0 9997 2 32958 98.6346 346.5042 0009789 107.3822 252.8426 14.19362148865417 FENGYUN 2E 1 33463U 08066A 25039.85736262 -.00000298 00000-0 00000+0 0 9996 2 33463 8.1324 58.6586 0000401 228.9150 312.8959 0.99123934 59101 NOAA 19 1 33591U 09005A 25040.13706396 .00000300 00000-0 18439-3 0 9992 2 33591 99.0148 104.0886 0013399 347.7438 12.3406 14.13280511825098 GOES 14 1 35491U 09033A 25039.87717137 -.00000079 00000-0 00000-0 0 9994 2 35491 0.4014 90.2056 0001624 167.5156 89.4214 1.00275484 1649 METEOR-M 1 35865U 09049A 25040.12865844 .00000261 00000-0 13552-3 0 9996 2 35865 98.6691 3.2097 0001402 321.6242 38.4837 14.22946517799263 GOES 15 1 36411U 10008A 25040.12504131 .00000029 00000-0 00000+0 0 9992 2 36411 0.0129 104.5544 0005017 169.9051 331.5244 1.00268340 54685 COMS 1 1 36744U 10032A 25039.99541567 -.00000355 00000-0 00000+0 0 9998 2 36744 3.5426 81.8470 0001146 239.2976 304.6989 1.00271650 53700 FENGYUN 3B 1 37214U 10059A 25039.08785118 .00000180 00000-0 11708-3 0 9998 2 37214 99.0309 76.2017 0022767 144.0801 234.4627 14.14674476737609 NPP 1 37849U 11061A 25040.15339748 .00000182 00000-0 10710-3 0 9994 2 37849 98.7469 340.8260 0000482 358.6000 1.5175 14.19552922688488 FENGYUN 2F 1 38049U 12002A 25039.85831830 -.00000282 00000-0 00000+0 0 9996 2 38049 6.3333 71.5923 0002362 187.3038 346.7575 0.99141232 47902 METEOSAT 10 (MSG 3) 1 38552U 12035B 25040.11287804 -.00000017 00000-0 00000+0 0 9994 2 38552 3.5096 61.9857 0001950 234.9482 243.1417 1.00270058 46275 METOP-B 1 38771U 12049A 25040.17186786 .00000229 00000-0 12458-3 0 9993 2 38771 98.5965 97.6768 0001097 56.5673 303.5610 14.21427940643210 FENGYUN 3C 1 39260U 13052A 25039.00518070 .00000274 00000-0 16100-3 0 9995 2 39260 98.4454 32.2582 0014916 11.2663 348.8843 14.15555810588710 METEOR M2 1 40069U 14037A 25040.09565824 .00000309 00000-0 16089-3 0 9993 2 40069 98.4577 30.0114 0006467 39.0599 321.1045 14.21212330549270 HIMAWARI 8 1 40267U 14060A 25040.05863863 -.00000284 00000-0 00000+0 0 9994 2 40267 0.0364 251.7013 0000601 34.2132 15.1984 1.00273530 37914 FENGYUN 2G 1 40367U 14090A 25039.91835270 -.00000313 00000-0 00000-0 0 9996 2 40367 4.3839 78.8055 0001306 139.3619 351.2713 1.00274184 37058 METEOSAT 11 (MSG 4) 1 40732U 15034A 25040.18516962 .00000054 00000-0 00000+0 0 9996 2 40732 1.9664 72.0271 0001095 231.0062 272.6973 1.00271124 35060 ELEKTRO-L 2 1 41105U 15074A 25039.89567690 -.00000128 00000-0 00000-0 0 9999 2 41105 5.4453 76.6004 0003911 213.4183 157.1211 1.00270355 33561 HIMAWARI 9 1 41836U 16064A 25040.18655971 -.00000284 00000-0 00000+0 0 9996 2 41836 0.0240 180.8850 0001157 151.4535 15.0988 1.00270808 30356 GOES 16 1 41866U 16071A 25040.11780661 -.00000257 00000-0 00000+0 0 9995 2 41866 0.0649 273.3295 0001879 65.6745 127.6355 1.00271150 30150 FENGYUN 4A 1 41882U 16077A 25021.48357438 -.00000176 00000-0 00000-0 0 9991 2 41882 1.0146 85.6565 0011073 343.9543 311.7920 1.00265548 29796 CYGFM05 1 41884U 16078A 25039.89598072 .00016360 00000-0 45422-3 0 9990 2 41884 34.9603 233.0736 0008651 212.8285 147.1896 15.35978927452388 CYGFM04 1 41885U 16078B 25040.17719786 .00018345 00000-0 48866-3 0 9991 2 41885 34.9350 212.5077 0007832 234.0094 125.9898 15.37248254452709 CYGFM02 1 41886U 16078C 25039.86383679 .00019078 00000-0 49251-3 0 9997 2 41886 34.9435 215.7851 0009779 222.1081 137.8887 15.38187475452590 CYGFM01 1 41887U 16078D 25039.91076822 .00017184 00000-0 47228-3 0 9991 2 41887 34.9436 237.0533 0008046 197.1359 162.9088 15.36290351452319 CYGFM08 1 41888U 16078E 25039.89584564 .00017757 00000-0 47625-3 0 9993 2 41888 34.9455 222.9156 0010462 220.1869 139.8076 15.37018347452542 CYGFM07 1 41890U 16078G 25039.87926280 .00018617 00000-0 49234-3 0 9993 2 41890 34.9471 213.6335 0008442 237.7220 122.2680 15.37464529452510 CYGFM03 1 41891U 16078H 25039.86905147 .00018606 00000-0 49503-3 0 9999 2 41891 34.9424 215.1268 0007254 220.8025 139.2150 15.37287703452491